Погода в Троицком

Россия / Приморский край     44°49′27″N   132°02′17″E
темп.,
°C
ветер,
м/с
пор.,
м/с
влажн.,
%
обл.,
%
осадки,
мм/ч
давл.,
гПа
погр.,
м
23 апреля, пт
пт2301:00+9ююз8173898 0.0 1024424
04:00+8ююз51147100 0.0 1024263
07:00+7ююз4855100 0.0 1024190
10:00+11ююз3450100 0.0 1025218
13:00+15ююв2143100 0.0 1024447
16:00+15юв3343100 0.0 1023432
19:00+13ссв3458100 0.0 1024203
22:00+12с2386100 0.3 102473
24 апреля, сб
сб2401:00+12зюз2287100 0.0 102339
04:00+11ссз1190100 0.0 102311
07:00+6св5982100 0.0 1024248
10:00+5с6977100 0.2 1025499
13:00+3ссз3889100 2.0 1025490
16:00+8ссз3837100 2.6 10231085
19:00+9с38330 0.0 1022602
22:00+5сз22460 0.0 102212
25 апреля, вс
вс2501:00+4зсз22480 0.0 102311
04:00+3з325091 0.0 102117
07:00+4зсз5124582 0.0 1020305
10:00+8с8133615 0.0 10211884
13:00+9с812274 0.0 10211952
16:00+10с610240 0.0 10201832
19:00+9ссв48280 0.0 10211434
22:00+6сз11350 0.0 102311
26 апреля, пн
пн2601:00+5зюз22370 0.0 102313
04:00+3юз22410 0.0 102220
07:00+3юз34445 0.0 102252
10:00+9ююз453412 0.0 1021410
13:00+13ю442999 0.0 10181302
16:00+15ю562612 0.0 10151513
19:00+12ю9144499 0.0 1015458
22:00+8ю7136549 0.0 1016417
27 апреля, вт
вт2701:00+7ююз7137813 0.0 1015418
04:00+6ююз8148662 0.0 1014391
07:00+6ююз7138883 0.0 1013379
10:00+11ююз8126881 0.0 1011526
13:00+14ююз91257100 0.0 1010886
16:00+14ю91258100 0.0 1007779
19:00+12ююз61071100 0.0 1007487
22:00+9ю51088100 0.8 1008279